Tracking 22879 objects as of 20-Apr-2021
HD Live streaming from Space Station
objects crossing your sky now

OPS 6026 (DMSP 4A F1)

Track OPS 6026 (DMSP 4A F1) now!
10-day predictions
OPS 6026 (DMSP 4A F1) is classified as:


NORAD ID: 2418
Int'l Code: 1966-082A
Perigee: 675.2 km
Apogee: 844.2 km
Inclination: 98.2 °
Period: 99.9 minutes
Semi major axis: 7130 km
RCS: 0.634 m2 (medium)
Launch date: September 16, 1966
Source: United States (US)
Launch site: AIR FORCE WESTERN TEST RANGE (AFWTR)
aabbcc
Your satellite tracking list
Your tracking list is empty




NASA's NSSDC Master Catalog

Two Line Element Set (TLE):
1 02418U 66082A   21109.77728671  .00000029  00000-0  21105-4 0  9999
2 02418  98.1791 300.3233 0118470 335.5611  23.9989 14.41801299840596
Source of the keplerian elements: AFSPC